Wind_Speed
43 43 41 39 37 37 38 38 37 36 35 34 32 32 33 33 33 34 35 36 37 38 39 39 40 40 40 40 39 38 36 36 37 37 37 36 36 36 38 41 42 43 43 43 44 45 46 47 48 48 49 49 49 49 50 49 49 49 48 48 48 48 47 45 43 43 43 44 45 45 43 40 37 35 34 33 33 33 32 32 32 32 32 33 33 34
45 44 43 41 40 39 39 38 37 37 36 35 34 32 31 31 31 32 34 36 37 39 40 41 42 42 42 42 40 38 37 37 38 38 37 35 33 32 33 35 36 38 39 39 40 41 43 44 45 46 47 47 48 48 48 48 48 48 47 47 47 46 44 41 40 40 41 41 41 40 39 37 35 33 33 32 31 31 30 30 30 31 31 32 32 33
46 46 45 44 43 41 40 39 38 38 38 37 36 34 33 32 31 31 33 34 36 38 40 42 43 44 44 43 41 39 39 39 40 40 40 37 34 33 32 33 34 35 37 38 39 40 41 42 43 44 45 46 46 46 47 47 47 47 47 48 47 44 41 39 38 38 38 38 38 37 37 36 35 34 33 32 31 31 30 29 29 29 30 31 32 33
49 47 47 47 45 43 42 40 39 39 39 39 39 38 36 35 33 32 31 32 34 37 38 40 42 43 43 42 41 40 40 41 42 42 42 40 38 36 34 32 33 34 36 38 39 40 41 42 43 44 45 46 46 47 47 47 47 47 47 47 46 42 39 37 37 37 36 36 36 36 35 35 34 33 33 33 32 31 30 29 29 29 30 32 33 34
48 47 47 47 46 45 44 41 40 40 40 41 42 42 41 40 37 35 32 32 33 34 36 38 40 41 41 41 40 40 41 42 43 43 43 43 42 41 38 35 34 34 35 36 38 40 41 42 43 45 46 47 48 48 48 46 46 46 46 45 43 40 37 36 35 34 34 34 34 34 34 33 33 32 31 31 31 31 31 30 30 31 32 33 34 34
44 44 44 45 46 46 45 43 41 41 41 42 44 45 45 44 42 39 35 35 35 34 35 36 38 40 41 42 42 42 42 42 42 42 41 42 44 44 43 40 38 36 35 35 36 38 39 41 42 43 45 46 47 48 47 45 44 43 43 42 40 37 35 34 33 32 32 32 32 32 32 32 32 31 30 29 29 29 30 31 32 33 34 34 34 34
41 42 42 44 46 46 45 43 43 43 43 43 45 46 47 47 45 43 41 41 40 38 36 36 36 37 38 40 42 43 43 42 41 40 40 40 42 43 43 42 41 39 38 38 38 38 38 40 41 43 44 45 46 46 45 43 41 41 40 40 38 37 35 34 33 32 31 31 31 31 32 32 31 31 30 29 29 30 31 32 33 34 35 36 36 35
41 41 43 45 46 46 45 44 44 44 44 45 45 46 47 48 47 46 45 46 45 43 40 39 37 35 35 35 37 39 41 41 41 40 40 40 40 40 40 40 40 41 41 41 40 39 39 40 41 42 43 44 45 46 45 42 41 40 39 39 38 37 36 36 36 35 33 31 31 31 31 31 31 31 31 30 30 31 32 34 35 36 37 37 37 36
42 43 45 47 48 46 45 44 44 45 45 45 46 47 47 47 47 46 46 48 48 46 45 43 41 39 36 34 33 34 36 38 39 40 40 40 40 39 39 40 40 41 41 41 41 41 41 41 41 42 42 43 44 45 45 45 44 42 41 40 39 39 39 40 39 38 35 32 30 30 30 31 31 31 31 31 31 32 34 35 36 37 37 38 38 37
43 44 45 47 47 45 44 43 44 45 45 45 45 46 47 46 46 47 47 48 49 48 46 46 45 43 40 38 36 34 34 34 36 38 39 40 40 40 40 41 41 41 41 41 41 41 42 42 42 41 40 40 41 42 43 44 44 44 43 42 40 39 38 38 37 35 32 30 29 29 29 30 31 31 31 32 32 34 35 36 36 37 37 37 37 37
43 44 44 43 43 42 42 42 42 43 44 44 44 45 46 47 47 48 48 49 49 47 45 44 44 43 41 40 39 38 36 34 34 35 36 37 38 40 40 41 41 40 40 40 40 41 41 41 39 37 36 35 35 36 37 38 39 39 38 37 35 34 33 32 30 29 27 27 27 28 29 30 31 32 32 33 34 34 35 35 35 35 35 35 35 35
43 42 41 40 39 39 40 41 42 42 42 43 43 44 45 47 48 48 48 47 47 46 45 43 42 41 40 40 40 40 39 36 34 33 33 33 35 36 37 38 38 37 37 37 37 38 38 37 35 33 31 30 30 30 31 31 31 31 30 29 29 28 27 27 26 26 26 26 27 29 30 31 32 32 33 33 33 34 34 33 33 33 33 33 33 34
42 40 38 37 38 39 40 42 42 42 43 43 44 45 47 48 48 47 45 45 45 45 45 44 41 40 39 39 39 39 39 37 35 33 32 31 32 33 34 35 34 34 33 33 33 34 34 33 32 31 30 29 29 28 27 27 26 26 26 26 26 26 26 26 26 26 27 27 28 29 30 31 31 31 31 31 31 31 31 31 31 31 31 31 32 33
41 37 35 36 38 40 42 43 43 43 42 43 45 46 47 48 47 45 43 42 42 42 43 42 40 38 37 36 36 36 36 36 34 33 32 32 32 33 33 33 33 32 32 31 31 31 31 31 31 31 31 30 30 29 28 26 25 25 25 26 26 27 27 27 27 27 27 27 28 28 29 29 29 29 29 28 29 29 29 29 29 30 30 31 31 32
39 36 36 38 40 41 42 43 43 42 42 43 45 46 46 46 46 45 43 42 40 40 39 39 39 37 35 34 33 33 33 33 33 32 32 33 34 34 33 33 33 32 31 31 30 30 29 28 28 29 30 30 30 29 28 27 26 26 26 26 26 27 27 27 26 26 26 26 26 26 27 27 27 27 27 27 27 27 28 28 29 29 30 30 31 31
37 36 38 39 40 41 42 43 42 42 42 43 45 46 46 46 45 44 43 42 40 39 38 38 38 37 35 34 33 32 31 31 31 31 32 33 34 34 34 34 33 33 32 31 30 30 28 27 27 27 28 28 29 29 28 27 27 26 26 26 25 25 25 25 25 25 25 25 25 25 25 25 25 26 26 26 27 27 28 28 29 29 30 30 30 31
36 36 38 39 39 41 42 42 43 43 44 44 46 47 46 45 44 42 41 41 40 39 39 40 39 38 36 35 33 32 32 31 30 30 31 31 33 34 34 33 33 32 31 30 30 29 28 27 27 27 27 27 27 27 27 27 26 26 25 25 24 24 24 23 23 23 24 24 24 24 24 25 25 25 26 26 27 27 28 28 29 29 29 30 30 30
35 35 35 36 37 39 42 43 44 45 46 45 46 47 45 43 42 41 40 41 41 41 41 41 40 39 38 36 34 33 32 31 30 30 30 31 31 32 32 32 31 31 29 29 29 29 28 27 27 27 26 26 26 26 26 26 26 25 25 24 24 23 23 23 23 23 23 23 24 24 24 25 25 25 26 26 27 27 28 28 28 29 29 29 29 30
33 34 34 33 35 37 41 42 43 45 46 47 46 45 43 42 41 41 42 43 44 43 42 41 40 39 38 37 36 35 33 32 31 31 30 31 31 31 30 30 30 29 29 29 29 28 28 27 27 26 26 26 25 25 25 25 25 25 25 24 24 24 24 23 23 24 24 24 24 24 24 25 25 26 26 26 27 27 28 28 28 29 29 29 29 30
32 34 34 33 33 36 40 42 43 44 44 44 43 42 42 42 42 44 45 45 44 42 41 40 39 38 37 37 36 34 33 32 32 32 31 32 32 31 30 30 30 29 29 29 29 28 28 27 27 26 26 26 26 26 26 25 25 25 25 25 24 24 24 24 24 24 24 24 24 24 25 25 25 26 26 26 27 27 28 28 29 29 29 30 30 30
33 35 37 35 32 33 39 42 44 44 44 42 40 39 41 43 44 44 44 42 41 40 39 38 38 38 37 35 34 33 33 32 32 32 32 32 31 31 31 31 30 29 29 29 29 29 28 28 27 27 27 27 27 26 26 26 26 26 25 25 25 25 25 24 25 24 24 24 24 24 25 25 25 26 26 27 27 27 28 28 29 29 29 30 30 30
35 36 38 39 35 32 35 40 43 45 45 44 43 41 41 43 43 42 40 38 37 37 37 38 38 38 36 35 34 33 32 32 32 32 31 31 31 32 31 31 30 29 29 29 29 29 28 28 28 28 27 27 27 27 27 26 26 26 26 25 25 25 25 25 25 25 25 24 24 25 25 25 25 26 26 26 27 27 28 28 29 29 29 30 30 30
38 38 39 41 39 36 33 34 38 42 45 46 46 46 43 42 41 40 37 36 36 37 37 38 38 36 34 33 33 32 32 32 31 31 30 31 32 32 31 30 30 29 29 29 29 29 28 28 28 28 28 28 27 27 27 27 27 26 26 26 25 25 25 25 25 25 25 25 25 25 25 25 25 26 26 26 26 27 27 27 28 28 29 29 29 30
40 39 40 41 42 41 38 35 34 36 39 42 45 46 46 44 42 41 39 38 38 37 37 36 35 34 33 33 33 32 31 31 31 30 30 31 31 31 30 30 29 29 29 29 29 28 28 28 28 28 28 28 28 28 28 27 27 27 26 26 26 26 26 26 26 26 25 25 25 25 25 25 25 25 26 26 26 26 26 27 27 27 28 28 28 28
41 39 39 41 42 43 43 41 38 35 34 35 38 41 43 43 43 43 42 41 39 38 36 35 34 33 33 33 32 32 31 31 30 30 30 31 31 30 29 29 29 29 29 29 28 28 28 28 29 28 28 28 29 29 28 28 28 27 27 26 26 26 26 26 26 26 26 26 25 25 25 25 26 26 26 26 26 26 26 26 26 27 27 27 27 28
39 39 38 40 41 43 45 45 43 40 36 34 33 33 35 37 39 41 41 41 41 40 39 37 37 36 35 34 32 31 31 30 30 30 30 31 31 30 30 30 30 29 29 28 28 28 29 29 29 29 29 29 30 30 29 29 29 28 27 26 26 26 26 26 26 26 26 26 26 26 26 26 26 26 26 26 26 26 26 26 26 27 27 27 27 27
35 36 36 37 39 42 44 46 45 43 41 38 36 34 32 32 33 34 35 38 40 40 40 40 40 39 38 36 35 33 31 31 30 31 31 32 33 33 32 32 31 30 29 29 29 29 30 30 30 30 30 31 31 31 31 30 30 29 28 27 26 26 26 26 26 27 27 26 26 26 26 26 26 26 27 27 27 26 26 26 27 27 27 27 27 27
31 32 33 34 35 38 41 44 46 45 44 42 39 38 36 35 34 33 32 32 34 34 35 36 37 38 38 38 36 35 34 33 33 33 33 34 35 35 35 34 33 32 32 31 31 31 30 30 30 31 31 32 32 32 31 31 30 30 29 28 27 26 26 26 26 27 27 27 26 26 26 26 26 27 27 27 27 26 26 27 27 27 27 27 28 28
30 31 32 33 34 35 37 39 42 43 44 43 43 41 40 39 38 37 36 34 33 32 32 32 32 32 32 32 32 33 34 35 35 35 35 35 36 37 37 36 35 35 35 35 33 32 31 32 32 32 32 33 33 33 32 31 31 30 30 29 28 27 26 26 27 27 27 27 27 27 26 27 27 27 27 27 26 26 27 27 27 27 27 27 28 28
31 32 33 35 35 36 36 36 37 38 39 40 42 42 42 42 42 41 40 39 38 37 36 34 33 31 29 27 27 27 30 33 35 36 36 36 37 37 36 36 36 37 38 38 37 36 35 35 34 34 34 34 34 34 33 32 31 30 30 29 29 28 27 27 27 28 28 28 28 27 27 27 27 27 27 27 27 27 27 27 27 27 28 28 28 28
31 32 33 35 37 38 38 38 37 36 36 36 38 39 40 41 42 42 42 41 41 41 40 39 37 36 34 32 30 29 29 31 32 34 35 36 37 36 35 34 35 36 37 37 38 39 39 39 38 37 36 36 36 36 35 33 32 31 31 31 30 29 29 28 29 29 30 30 29 28 28 28 27 27 27 27 27 27 28 28 28 28 28 28 29 29
31 31 32 34 36 38 40 40 39 38 37 36 36 36 38 39 40 40 41 41 42 41 41 40 40 39 38 38 37 36 35 34 33 33 35 36 38 37 36 35 34 34 33 34 35 36 37 38 39 38 38 38 39 38 37 36 35 34 33 32 32 31 31 30 31 31 31 31 31 30 29 29 29 29 29 29 29 29 29 29 29 28 29 29 30 30
29 29 30 31 33 35 37 38 39 39 38 37 37 36 37 37 38 39 40 40 41 41 41 41 40 40 40 40 40 40 39 38 37 37 37 38 39 39 39 38 37 35 33 33 33 34 34 34 35 36 37 38 39 40 40 39 38 37 36 35 34 33 33 32 33 33 33 33 33 32 31 31 31 31 31 31 31 31 30 30 29 28 29 30 31 31
26 27 27 28 29 30 32 34 36 37 38 37 37 37 36 37 37 38 39 40 40 40 41 41 41 40 40 40 40 40 40 40 40 40 40 40 41 41 41 42 41 40 37 36 36 36 36 35 34 33 34 35 36 37 39 39 39 38 37 35 34 34 33 33 33 34 35 34 34 34 34 33 33 33 33 33 33 33 32 31 29 29 30 32 32 32
23 24 25 26 27 27 28 29 31 33 35 36 36 37 36 36 37 37 38 38 39 39 39 40 40 40 39 39 39 39 40 40 40 40 40 41 41 42 42 43 44 43 42 41 40 40 39 39 38 37 35 34 34 34 34 35 34 34 33 33 32 32 32 32 32 33 34 35 35 35 35 35 35 36 36 35 35 34 34 32 31 30 32 33 34 33
20 22 23 25 26 26 26 27 28 29 31 33 35 37 37 37 37 37 36 36 36 37 37 37 38 38 38 38 37 37 37 37 37 37 37 38 39 39 40 41 42 43 43 43 43 42 42 42 41 41 40 38 37 36 34 33 32 31 31 32 32 32 32 31 31 32 33 33 34 35 36 37 38 38 38 37 36 35 34 33 32 32 33 34 34 34
19 21 22 23 25 26 26 26 27 27 28 30 33 36 38 40 39 38 36 35 34 34 34 35 35 35 36 36 36 35 35 34 34 34 34 34 34 34 35 36 38 39 40 41 42 42 42 42 42 42 42 42 42 40 39 37 35 34 34 35 35 35 35 34 34 33 33 33 34 35 36 38 39 39 38 37 35 34 34 33 33 33 34 34 35 34
20 20 21 22 23 25 26 26 27 27 28 28 30 33 37 40 41 40 38 36 34 33 33 33 34 34 35 35 35 35 34 34 33 33 33 32 32 32 32 33 34 35 36 37 37 38 39 40 41 42 42 43 43 42 41 40 38 38 38 38 37 37 37 37 37 36 36 35 35 35 36 37 38 38 36 34 33 32 32 32 32 33 34 34 34 34
21 21 21 22 23 24 25 26 27 28 28 28 29 31 34 38 41 42 40 38 35 34 34 34 34 35 35 36 36 36 36 36 36 36 35 34 34 34 34 33 33 33 33 33 34 35 37 39 40 41 42 42 41 41 41 40 39 38 38 38 38 38 38 38 38 38 38 38 37 37 37 37 37 36 34 32 31 30 31 31 31 32 33 34 34 35
23 22 22 22 23 24 25 26 27 28 29 29 30 30 32 35 38 40 40 39 38 37 36 36 36 37 37 37 38 38 38 39 39 39 38 38 38 38 37 37 36 35 34 34 35 37 39 40 41 41 41 41 40 40 39 39 39 39 38 37 37 38 39 38 38 39 40 40 40 39 39 38 37 35 33 32 31 31 31 31 32 33 33 34 35 35
25 25 24 24 24 25 26 27 28 28 29 29 30 30 31 32 34 36 38 39 39 39 39 39 39 39 39 39 38 38 38 39 39 39 40 40 40 41 41 41 41 40 39 39 40 41 42 42 42 41 41 40 40 40 40 40 40 40 39 39 39 40 40 39 39 40 40 41 42 42 41 40 39 37 36 34 34 34 34 34 34 35 35 36 36 37
27 27 27 26 26 26 26 27 28 29 29 30 30 31 31 32 33 34 35 37 38 39 40 41 41 42 42 41 40 39 38 38 38 39 39 40 41 41 42 43 44 44 44 44 44 44 44 43 42 41 40 40 40 40 40 41 41 41 41 42 42 42 41 41 41 41 41 41 42 43 43 43 42 41 40 40 39 39 39 39 39 39 39 39 39 39
28 28 28 28 28 27 27 27 28 29 29 30 30 31 31 32 33 34 34 35 37 38 39 40 41 41 42 42 41 40 39 38 38 38 39 39 40 41 42 43 44 45 45 45 45 45 43 42 41 40 40 40 39 40 40 41 41 42 42 43 43 42 41 42 42 42 41 41 42 43 44 44 44 44 44 44 44 44 44 43 43 43 42 42 41 41
27 28 29 29 29 29 28 28 29 29 30 30 31 31 31 32 33 33 34 35 36 36 37 38 39 39 40 40 40 40 39 39 38 38 38 38 39 39 40 41 42 43 43 43 43 42 41 40 39 39 38 38 38 38 39 40 40 41 42 42 42 41 42 42 41 40 40 41 41 42 43 43 44 45 45 45 46 46 46 45 45 45 44 43 42 42
25 26 28 29 30 30 30 30 30 30 30 31 31 32 32 32 32 33 33 34 34 35 35 36 36 37 37 37 37 38 38 37 37 37 37 37 37 37 38 38 39 39 40 40 40 40 39 39 38 37 37 37 37 37 38 38 39 39 39 40 40 40 40 40 39 39 39 40 40 40 41 42 42 43 44 44 45 45 44 44 44 44 44 43 42 42
22 24 26 28 29 31 31 32 32 31 31 31 32 32 33 33 33 33 33 33 33 34 34 34 34 34 34 34 34 35 35 35 35 35 35 35 35 35 35 35 36 36 37 37 38 38 38 38 37 37 37 36 37 37 37 37 37 37 38 38 38 38 38 38 38 38 38 39 39 39 40 40 41 41 42 42 43 43 43 43 43 42 42 42 42 41
19 21 23 25 28 29 31 32 32 33 33 33 33 33 33 34 34 34 34 34 34 34 34 34 33 33 33 33 33 32 32 32 32 33 33 33 33 33 33 34 34 35 35 36 36 36 37 37 37 37 37 37 37 37 37 37 38 38 38 38 38 39 39 39 39 39 39 39 39 39 39 40 40 41 42 42 42 42 42 42 42 42 42 42 42 42
16 18 20 22 24 27 29 31 32 33 34 34 34 34 34 34 35 35 35 35 35 35 34 34 34 33 33 33 33 32 32 32 32 32 32 32 32 33 33 33 33 34 34 34 35 35 35 35 36 36 36 37 37 38 39 39 40 40 40 41 41 41 41 41 41 40 40 40 40 40 40 41 41 42 42 42 42 42 42 42 43 43 43 43 42 42
15 16 17 19 21 23 25 28 30 32 33 34 35 35 35 35 35 35 36 36 36 36 36 36 35 35 35 34 34 34 33 33 33 33 32 32 33 33 33 33 34 34 34 34 34 35 35 35 36 36 37 37 37 38 40 41 41 42 42 42 42 42 42 42 42 42 42 41 41 41 42 42 42 42 42 42 42 42 43 43 43 43 43 43 43 43
14 15 16 17 18 19 21 24 26 28 31 32 34 35 36 36 36 36 36 37 37 37 37 37 37 37 36 36 36 35 35 34 34 34 34 34 34 34 34 34 34 34 34 35 35 35 35 35 36 37 38 38 39 39 40 41 42 42 42 42 42 42 42 42 42 42 42 42 42 42 42 42 42 42 42 42 42 42 42 42 43 43 43 43 43 43
14 15 15 16 16 18 19 20 22 24 27 29 32 33 35 36 36 37 37 37 37 38 38 38 38 37 37 37 37 37 36 36 36 35 36 36 36 36 35 35 35 35 35 35 35 36 36 36 36 37 39 40 41 40 40 41 42 42 42 42 42 42 42 42 42 42 42 41 41 41 41 41 41 41 41 41 41 41 41 41 42 42 42 42 42 42
Wind_Direction
243 243 240 237 234 233 233 232 231 229 227 225 224 225 227 228 227 226 225 225 224 222 221 220 220 221 223 226 228 228 227 225 225 225 225 226 228 229 230 231 232 233 234 234 233 232 230 230 229 229 229 229 228 228 228 227 226 226 225 224 223 223 224 225 225 226 227 228 228 226 222 219 219 220 221 222 223 224 226 229 232 235 238 240 242 244
240 242 240 237 233 231 231 229 228 226 223 219 217 217 219 220 220 219 221 221 220 219 219 220 220 221 223 225 226 225 224 223 223 224 225 224 223 222 222 223 225 226 227 227 227 227 227 227 227 227 228 227 226 226 225 223 221 219 218 218 219 220 221 221 221 221 222 222 221 219 218 217 217 218 220 221 223 224 227 230 233 236 239 242 243 245
238 239 239 237 233 231 229 228 227 225 221 216 213 212 212 211 210 211 213 214 216 218 220 221 223 224 225 225 224 222 220 220 221 223 224 222 220 216 215 214 214 216 218 218 218 219 220 220 221 222 223 223 222 221 219 217 215 215 215 217 218 220 220 219 218 218 218 217 217 216 217 217 218 220 222 224 225 227 229 231 235 239 242 244 246 247
235 235 236 235 233 230 229 227 226 224 221 216 212 210 210 208 206 205 207 209 212 215 218 220 222 223 224 224 222 219 217 217 218 220 222 221 219 217 215 212 210 210 212 213 213 214 214 214 214 214 214 214 214 213 212 211 212 213 215 217 219 219 218 216 216 216 216 216 217 217 218 220 222 225 228 231 233 234 235 236 239 242 245 247 247 247
231 231 232 232 231 230 228 227 226 224 221 216 212 210 209 208 206 206 208 210 211 212 212 214 215 215 216 217 217 216 215 215 217 219 220 220 220 220 221 219 217 215 214 213 214 215 214 213 212 212 210 209 207 206 206 208 209 211 213 216 216 215 213 212 213 214 215 217 218 220 222 225 228 232 236 239 240 242 242 242 243 245 247 248 248 248
228 226 227 228 228 229 228 227 225 224 222 218 215 212 211 210 209 208 211 214 214 212 208 206 205 204 204 205 207 209 211 213 215 217 219 220 221 223 224 225 225 224 222 220 219 218 218 217 217 216 214 211 208 206 206 205 205 207 209 210 210 208 207 208 210 213 216 218 220 223 226 229 233 236 240 242 244 244 245 245 245 246 246 248 248 248
230 226 225 225 227 228 227 226 225 224 222 220 217 214 213 213 212 212 214 216 217 214 209 206 204 201 199 198 200 202 205 208 211 213 216 219 221 224 226 228 229 229 229 228 227 226 224 222 221 220 219 219 216 214 212 207 204 203 205 206 207 208 209 213 216 219 222 223 224 226 229 232 235 239 241 242 243 243 244 244 244 244 245 246 247 248
237 232 227 226 225 225 225 224 223 223 222 221 218 216 215 215 215 215 216 217 217 215 213 211 210 208 205 202 201 201 202 205 207 210 213 216 219 222 225 227 229 230 231 232 232 232 231 229 226 224 223 224 224 223 221 217 213 210 209 211 214 218 223 228 232 234 235 233 232 232 233 234 237 239 241 241 242 243 243 243 243 243 243 244 246 247
243 237 231 225 222 220 219 218 219 220 221 221 220 218 216 216 215 215 216 218 218 217 216 217 217 217 217 215 212 209 207 206 207 209 212 214 217 218 220 222 225 227 229 231 232 233 233 232 231 229 228 228 229 230 230 229 228 226 225 226 230 235 239 243 245 246 245 243 240 237 236 236 237 238 239 240 240 241 242 242 242 242 242 243 244 246
244 238 230 222 217 215 213 213 214 217 219 220 220 219 217 215 213 213 214 217 219 219 219 220 222 223 223 223 222 220 218 214 211 210 211 213 215 216 217 218 220 222 224 226 228 230 231 232 232 232 232 233 234 235 236 237 238 238 238 241 243 246 249 250 250 249 247 245 242 239 237 236 236 236 237 238 238 239 240 240 241 241 241 242 244 245
239 232 222 215 211 211 211 211 212 214 216 218 218 218 216 214 211 211 213 217 219 220 220 221 223 225 226 226 225 225 225 222 219 216 214 214 215 216 217 218 219 219 220 221 223 226 228 230 231 232 233 235 236 237 239 239 240 241 243 245 247 248 248 247 246 244 241 239 237 235 234 233 234 234 235 236 237 238 239 239 240 241 242 243 245 246
228 220 212 208 208 209 211 212 213 213 214 215 215 213 210 210 210 210 213 216 218 220 220 220 221 223 225 225 226 226 226 226 224 222 219 217 218 219 220 221 221 221 220 220 221 223 225 227 229 231 232 235 236 237 237 236 237 238 239 239 239 239 238 236 235 233 232 231 230 230 230 231 232 233 234 235 236 238 239 240 241 242 243 244 246 247
216 209 204 204 207 210 212 212 213 212 212 212 210 206 203 203 205 208 212 216 219 220 221 221 221 222 224 225 225 226 226 226 225 224 223 223 223 224 225 225 225 224 223 222 223 224 225 226 227 229 231 233 235 235 234 233 231 230 229 228 227 227 226 226 226 226 226 227 227 228 229 230 231 233 234 235 237 238 240 241 242 243 244 245 246 248
206 199 198 201 205 209 211 212 212 210 209 208 205 202 200 201 204 208 212 215 218 220 222 223 223 222 221 222 223 225 224 224 223 223 224 225 227 228 229 229 229 228 226 225 225 225 226 225 225 227 229 230 232 232 231 230 227 224 221 219 218 219 219 220 222 223 224 226 227 228 230 231 232 234 235 237 238 240 241 242 243 244 244 245 246 246
197 193 196 200 203 205 208 210 210 208 206 204 202 200 199 203 207 210 212 214 215 217 218 219 219 218 216 217 218 220 220 220 221 221 223 225 228 229 230 230 229 229 228 226 226 226 225 223 222 223 224 225 227 227 227 227 225 222 218 216 215 216 217 218 220 222 223 225 227 229 230 232 233 234 236 237 239 240 241 242 242 243 243 244 245 245
191 192 197 199 201 202 204 206 206 205 203 201 201 202 204 206 209 211 212 212 212 211 211 212 211 210 210 213 215 216 216 217 219 221 223 225 227 228 229 228 227 227 226 225 224 223 221 219 218 217 217 219 220 220 221 221 221 220 218 217 217 217 218 219 221 222 224 226 227 229 230 232 233 234 236 237 238 239 240 241 241 242 243 243 244 245
188 192 197 199 198 199 201 202 202 200 199 198 200 204 207 209 210 211 211 211 209 208 208 209 207 205 205 208 211 214 215 215 217 219 221 222 224 226 226 225 224 223 222 220 219 218 216 214 213 213 213 213 214 214 214 215 216 217 217 217 218 219 220 221 222 224 225 226 228 229 231 232 234 235 236 237 238 239 240 241 242 243 244 245 245 246
188 190 193 196 198 198 199 198 198 198 196 196 199 204 208 209 210 210 210 210 208 207 207 209 209 209 208 208 210 213 215 214 215 216 217 218 220 220 220 220 220 217 214 213 212 211 209 209 209 209 209 209 210 210 211 212 213 215 216 217 218 219 221 222 224 225 227 228 230 231 233 234 236 237 238 239 240 241 242 243 244 245 246 247 248 249
189 188 189 193 197 199 198 197 196 195 195 194 198 202 204 206 207 208 207 206 205 205 206 207 210 212 213 213 214 215 215 214 215 215 214 214 215 214 214 213 212 209 206 205 205 204 203 204 205 206 206 206 207 209 210 211 213 214 216 217 219 221 222 224 226 228 229 231 233 234 236 237 238 239 240 241 242 243 245 246 247 248 249 250 250 251
191 189 188 190 194 197 197 197 196 196 196 196 196 198 199 201 203 203 202 200 199 200 203 206 208 211 213 215 217 217 217 216 215 214 212 211 210 209 208 207 205 202 200 200 200 201 200 201 202 203 204 205 207 208 210 212 213 215 217 218 220 222 224 226 228 230 232 233 235 236 237 238 240 241 242 243 244 246 247 248 249 250 251 251 252 253
194 192 189 190 193 195 193 194 195 197 199 199 199 198 197 197 196 196 195 194 193 195 199 202 206 210 213 214 216 217 218 217 215 213 211 208 207 206 205 203 201 199 197 198 199 199 200 201 202 202 204 205 207 209 211 213 215 216 218 220 222 224 226 228 230 231 233 234 235 236 237 238 239 240 242 243 245 247 248 249 250 251 252 252 253 254
195 194 192 191 194 195 193 192 193 195 197 199 200 199 197 194 192 191 191 191 193 197 201 205 209 213 215 216 216 217 217 216 214 212 208 205 204 204 202 200 199 197 197 198 200 200 200 201 202 204 206 208 210 212 213 215 217 218 220 221 223 225 227 229 230 231 231 232 233 234 235 236 238 239 241 243 244 246 248 249 250 251 252 253 254 255
193 194 194 194 195 197 196 194 192 192 193 194 195 196 197 195 193 193 194 197 201 205 209 213 216 218 219 218 217 216 215 213 212 209 205 204 203 202 200 198 198 198 198 200 201 202 203 203 205 206 208 210 213 214 216 217 218 220 221 223 225 227 228 229 230 230 230 230 230 231 233 234 236 237 239 241 244 246 247 249 250 251 252 253 254 255
192 193 194 195 195 196 198 199 198 195 192 190 189 190 193 195 196 198 201 205 208 212 215 217 218 218 218 216 214 213 211 210 208 205 204 204 204 202 199 199 200 201 201 202 203 204 205 207 208 209 211 213 215 216 217 219 220 221 223 225 227 228 229 230 229 228 227 227 228 229 230 232 234 236 238 241 243 245 247 248 250 251 253 254 254 255
192 193 194 195 196 197 198 201 204 204 200 194 189 188 188 190 194 198 202 205 208 211 213 213 213 212 212 211 210 209 208 207 205 203 203 204 204 203 201 201 203 204 204 204 205 206 208 210 211 213 215 217 218 219 219 220 221 223 225 227 229 230 231 230 229 227 226 226 226 227 229 231 233 235 238 240 242 244 246 248 250 252 253 254 255 256
195 195 195 195 196 197 198 201 204 208 209 207 202 197 192 190 190 192 196 198 201 203 204 206 207 207 207 207 207 207 206 205 204 203 204 205 205 204 204 205 207 207 207 208 208 210 213 214 214 216 218 220 221 221 221 221 223 224 226 228 230 232 232 231 229 227 226 226 226 227 229 231 233 235 237 240 242 244 246 248 250 252 254 255 256 257
200 200 200 198 197 197 198 200 203 206 210 212 212 211 207 202 198 195 194 194 195 197 198 199 200 201 201 202 203 204 205 204 204 205 206 207 208 207 208 208 209 210 211 212 213 215 217 218 219 220 221 223 223 223 222 223 224 225 227 229 231 233 233 232 230 228 226 226 227 229 231 233 235 236 238 240 242 244 247 249 251 253 255 256 257 257
207 207 207 205 202 199 198 199 201 204 207 209 212 213 214 213 212 210 206 201 199 198 197 197 196 195 195 194 196 198 201 203 204 206 207 209 210 210 211 211 211 212 214 215 217 220 222 223 224 224 225 226 225 224 224 224 225 226 228 230 232 234 234 233 231 229 228 229 230 231 233 235 237 239 240 242 244 246 248 251 253 255 256 257 258 258
212 212 212 212 210 207 204 202 202 203 205 207 209 210 211 212 214 215 214 212 210 208 207 205 202 198 194 192 192 194 197 200 203 205 207 209 211 212 212 212 212 214 216 217 219 222 225 227 228 228 228 228 227 226 225 225 226 228 230 232 234 235 236 234 232 231 230 231 232 234 236 238 240 241 243 244 246 248 250 253 255 257 258 259 259 259
212 213 214 215 215 214 213 211 209 208 208 208 209 209 210 210 212 213 214 214 215 216 216 216 214 212 208 203 200 199 200 202 204 205 207 210 212 213 212 211 213 215 217 218 219 221 224 227 229 229 229 229 228 227 226 227 228 230 232 234 236 237 237 236 234 232 232 232 234 236 238 240 242 243 245 246 247 249 252 254 257 259 260 260 261 261
211 211 213 214 215 217 217 218 218 217 215 214 213 212 212 212 212 213 213 214 216 218 220 221 222 222 221 220 218 216 214 212 210 209 210 213 216 216 215 213 214 215 218 220 222 223 225 227 229 231 231 230 228 227 227 228 230 232 234 236 237 238 238 236 235 233 232 233 235 237 239 241 243 244 246 247 249 251 253 256 258 260 261 262 262 262
209 211 211 212 213 215 217 219 220 221 221 219 218 216 216 215 215 215 216 216 217 219 221 223 224 225 226 226 227 226 226 224 221 218 218 220 221 222 222 220 219 218 219 220 224 227 228 229 231 233 233 232 230 228 227 228 230 233 235 237 238 238 238 236 235 233 233 233 235 237 239 242 244 246 247 249 251 253 255 257 259 261 262 263 263 263
208 210 211 211 211 212 213 215 217 219 220 220 220 219 219 219 219 219 219 220 221 221 222 224 225 226 227 228 228 229 229 230 229 227 226 226 226 226 226 226 225 224 223 222 223 226 230 232 234 236 236 236 234 232 230 230 231 233 235 237 238 239 238 237 235 234 233 234 236 238 241 243 245 247 249 251 252 254 256 257 259 260 262 263 264 264
206 208 210 211 211 211 211 211 212 213 215 216 217 218 219 220 220 221 221 222 223 224 225 225 226 226 228 228 228 229 229 230 230 230 230 230 229 228 228 228 229 229 228 227 227 227 229 231 233 236 238 238 237 235 233 233 233 234 236 237 239 240 240 238 237 235 235 236 237 240 243 246 248 249 251 252 254 255 257 257 257 257 259 261 263 264
204 206 208 210 211 212 211 210 209 209 210 211 212 214 216 217 219 220 221 222 223 224 225 226 226 227 227 228 228 228 228 228 229 229 229 230 230 229 228 229 230 230 231 231 231 231 232 232 233 235 237 238 238 237 236 235 235 235 236 237 238 240 241 240 239 238 237 238 240 243 245 248 249 251 251 253 254 256 257 256 255 254 255 258 261 264
203 205 207 209 211 212 212 211 210 208 208 208 209 210 212 213 215 217 218 219 221 222 223 225 226 227 227 227 227 227 227 227 227 227 227 228 228 228 228 229 229 230 232 232 233 234 234 235 235 236 237 238 238 238 238 237 237 237 238 239 240 242 244 244 243 242 241 241 242 244 247 248 249 250 251 252 254 255 256 255 253 253 254 256 259 262
205 206 207 209 210 212 213 212 211 209 208 208 208 208 209 210 211 213 214 216 218 219 221 223 224 226 226 227 226 226 226 226 226 226 226 226 226 226 227 228 229 230 231 232 233 234 234 236 236 237 238 239 240 241 241 241 241 242 242 244 245 247 248 249 248 247 245 245 245 246 247 247 248 249 250 252 253 254 255 254 253 253 254 256 259 261
209 208 208 209 210 211 212 213 212 210 208 207 206 206 206 207 208 209 211 213 215 218 220 222 223 224 225 225 225 225 224 225 225 225 224 224 223 224 225 226 227 227 228 229 231 232 234 236 237 238 239 240 241 242 244 245 246 247 247 248 249 250 251 252 252 250 249 248 247 247 247 247 246 247 249 250 252 253 253 253 253 254 255 257 259 261
212 210 209 209 210 210 211 212 211 211 209 208 207 206 205 205 205 206 208 210 213 216 219 221 222 223 223 223 223 223 223 223 223 223 222 221 221 221 222 223 223 223 223 225 227 230 233 235 237 238 239 240 242 243 244 245 246 247 248 249 250 251 252 253 253 252 250 249 248 248 247 247 246 247 248 250 251 252 253 253 254 255 256 258 260 261
214 213 212 211 210 210 210 210 210 210 210 209 208 207 206 205 204 204 206 208 210 214 216 219 221 222 223 223 223 223 223 223 223 223 222 221 220 220 221 222 223 222 222 223 226 230 233 236 238 239 240 241 241 242 243 244 245 246 247 249 251 251 252 252 252 252 251 249 248 247 247 247 247 247 248 250 251 253 255 256 257 257 258 260 262 263
216 215 214 212 211 210 210 210 210 210 210 210 209 208 207 206 205 205 205 207 209 211 214 216 218 220 222 223 224 225 225 224 224 224 224 224 223 222 222 223 225 226 226 227 230 232 235 237 239 240 240 241 241 242 242 243 244 245 247 248 250 251 252 252 252 252 251 250 248 247 247 247 248 249 250 252 254 256 257 259 261 261 262 262 264 265
217 216 215 214 213 212 211 210 210 209 210 209 209 208 208 207 207 207 207 209 210 211 213 214 216 217 219 221 223 225 225 226 226 226 226 226 226 226 226 226 227 228 230 231 233 235 237 239 240 241 241 241 241 241 241 242 243 245 246 248 249 250 251 251 251 251 250 250 249 248 247 248 249 251 253 255 257 259 260 262 263 264 265 265 266 266
218 218 217 216 215 214 213 211 210 210 209 209 208 207 207 207 207 207 209 210 211 213 213 215 216 217 218 220 221 223 224 225 226 226 227 227 228 228 229 229 229 230 231 233 235 236 238 239 240 240 240 240 240 240 241 241 243 244 245 247 248 249 250 250 250 250 250 250 249 249 249 250 251 253 255 257 259 260 262 263 265 266 266 267 268 268
219 219 218 218 217 216 215 214 213 212 210 209 208 207 206 206 206 206 208 209 211 212 213 214 216 217 218 218 220 221 222 223 224 225 226 227 228 228 229 230 230 231 232 232 234 235 236 237 238 238 238 238 238 239 239 240 241 243 244 246 247 248 248 249 249 249 250 250 250 251 251 252 253 255 257 258 260 261 262 264 265 266 267 268 268 269
220 220 219 219 218 218 217 217 216 214 213 211 210 208 207 206 205 205 205 206 208 209 211 212 214 215 215 216 217 218 219 220 220 221 223 224 225 225 226 227 228 228 229 229 230 231 232 232 233 233 233 234 234 235 236 237 239 241 242 244 245 246 247 248 248 249 249 250 251 252 253 254 255 256 258 259 260 261 262 264 265 266 267 268 269 269
220 220 220 220 219 219 219 218 218 217 216 214 213 211 209 208 207 206 205 206 206 207 208 209 210 211 211 212 213 214 214 215 216 216 217 219 219 220 221 221 221 222 223 224 225 226 226 227 227 228 228 229 230 231 233 235 237 239 240 242 243 244 246 246 247 248 249 250 251 253 254 255 256 257 259 260 261 262 263 264 265 266 267 268 269 269
220 220 221 221 221 220 220 219 219 219 218 217 216 214 213 211 210 209 208 207 207 208 208 208 209 209 209 210 210 210 211 211 211 212 213 214 215 216 216 217 218 218 219 221 222 223 224 225 226 227 228 229 231 233 234 237 238 241 242 243 245 246 246 247 248 249 250 251 253 254 255 256 258 259 260 261 262 263 264 265 266 267 268 268 269 269
218 219 220 220 220 220 220 220 220 220 219 219 218 217 216 214 213 212 212 211 211 211 211 211 211 211 211 211 211 212 212 212 213 213 214 215 216 217 218 219 220 221 222 223 225 226 228 229 231 233 234 236 238 240 241 243 245 246 247 248 249 250 250 251 251 251 252 253 254 255 256 258 259 260 261 262 263 264 265 266 266 267 268 268 269 269
217 217 218 218 218 218 219 219 219 220 220 220 220 220 219 217 216 215 215 215 214 214 214 214 214 214 214 215 215 216 216 217 217 218 219 220 221 222 223 224 226 227 228 230 231 233 235 236 238 240 241 243 244 246 247 249 250 251 251 252 253 253 254 254 254 254 255 255 256 257 258 258 259 260 262 263 264 265 265 266 266 267 267 268 268 267
217 216 216 216 216 216 216 217 218 218 219 220 220 221 221 220 219 218 217 217 217 217 217 217 217 217 218 218 219 219 220 221 222 223 224 224 225 226 227 228 229 231 232 234 235 237 238 240 242 244 245 246 247 249 250 251 252 253 254 254 255 255 256 256 256 256 256 257 257 258 258 259 260 261 262 263 264 264 265 266 266 266 266 266 266 266
217 216 216 215 214 214 214 215 215 215 216 217 219 220 221 221 221 220 220 219 219 219 219 219 219 219 219 220 221 222 223 224 225 226 226 227 228 229 229 230 231 232 233 235 236 238 239 241 242 244 246 247 248 249 250 251 252 254 255 255 256 256 256 257 257 257 257 258 258 258 259 259 260 261 262 263 264 264 265 265 265 265 265 265 264 264
Height
2967 2969 2973 2976 2978 2979 2980 2981 2983 2985 2987 2989 2991 2992 2993 2996 2997 2999 3000 3001 3002 3004 3006 3007 3009 3012 3014 3015 3016 3017 3019 3021 3024 3026 3027 3028 3030 3032 3035 3037 3038 3040 3041 3042 3044 3046 3048 3050 3052 3054 3055 3057 3058 3059 3061 3063 3065 3067 3068 3070 3071 3072 3073 3074 3075 3076 3077 3078 3079 3080 3081 3083 3085 3087 3087 3088 3089 3090 3091 3092 3093 3095 3096 3097 3098 3099
2965 2967 2970 2973 2975 2976 2977 2979 2981 2983 2984 2987 2989 2991 2992 2994 2996 2997 2998 2999 3000 3001 3002 3004 3006 3008 3011 3012 3014 3016 3017 3019 3021 3022 3024 3026 3028 3030 3032 3034 3035 3037 3039 3040 3042 3044 3046 3047 3049 3051 3052 3053 3055 3057 3058 3061 3063 3064 3065 3067 3068 3069 3070 3072 3072 3074 3075 3076 3077 3079 3080 3081 3083 3085 3086 3087 3087 3088 3089 3090 3091 3092 3094 3095 3096 3097
2962 2965 2967 2969 2971 2973 2974 2976 2978 2980 2982 2984 2987 2989 2991 2992 2994 2995 2996 2997 2997 2998 3000 3002 3003 3006 3007 3010 3012 3014 3016 3017 3019 3020 3022 3024 3026 3028 3030 3031 3033 3034 3036 3038 3040 3041 3043 3044 3046 3047 3049 3050 3052 3054 3056 3059 3061 3062 3063 3064 3065 3067 3068 3069 3070 3072 3073 3074 3076 3077 3078 3080 3081 3083 3084 3085 3086 3086 3087 3088 3089 3090 3092 3093 3094 3095
2960 2962 2964 2966 2968 2970 2972 2973 2976 2977 2980 2982 2985 2987 2989 2991 2992 2992 2994 2994 2995 2996 2997 2999 3001 3002 3005 3007 3009 3012 3013 3015 3017 3018 3020 3022 3024 3026 3027 3029 3031 3032 3034 3036 3038 3039 3040 3042 3043 3044 3046 3047 3049 3052 3054 3056 3057 3059 3060 3061 3062 3064 3065 3067 3068 3070 3071 3072 3074 3075 3077 3078 3080 3081 3082 3083 3084 3084 3085 3085 3086 3088 3089 3091 3092 3093
2957 2959 2960 2963 2966 2967 2968 2971 2973 2975 2978 2981 2982 2984 2986 2987 2989 2990 2992 2993 2994 2994 2996 2997 2998 3000 3002 3004 3006 3008 3011 3012 3014 3016 3017 3019 3022 3024 3025 3027 3028 3030 3032 3033 3036 3037 3038 3040 3042 3042 3043 3045 3047 3048 3050 3052 3054 3056 3057 3058 3060 3062 3063 3064 3066 3068 3069 3071 3072 3073 3075 3076 3077 3079 3080 3081 3082 3082 3082 3083 3084 3085 3087 3089 3090 3091
2954 2956 2957 2960 2962 2964 2965 2968 2971 2973 2975 2977 2980 2981 2983 2984 2986 2988 2990 2991 2992 2992 2993 2995 2996 2997 2999 3001 3003 3006 3007 3009 3011 3013 3015 3017 3019 3021 3023 3024 3026 3028 3029 3031 3033 3035 3036 3038 3039 3041 3041 3042 3043 3045 3047 3048 3050 3052 3054 3056 3057 3059 3061 3062 3064 3066 3067 3068 3070 3071 3072 3074 3075 3076 3077 3078 3079 3080 3081 3082 3082 3084 3085 3087 3087 3088
2951 2952 2954 2957 2959 2960 2962 2966 2968 2970 2972 2974 2976 2978 2980 2982 2983 2986 2988 2988 2988 2989 2991 2993 2994 2995 2996 2998 3000 3002 3004 3006 3008 3010 3012 3014 3016 3018 3020 3022 3024 3025 3027 3028 3030 3032 3034 3035 3037 3038 3039 3040 3041 3042 3043 3045 3046 3048 3050 3052 3054 3056 3058 3059 3061 3063 3065 3066 3067 3069 3070 3071 3072 3073 3075 3076 3077 3078 3079 3080 3081 3082 3083 3084 3085 3086
2948 2950 2952 2954 2955 2957 2960 2963 2966 2967 2969 2970 2972 2975 2977 2979 2982 2984 2986 2985 2985 2987 2989 2990 2992 2993 2994 2996 2997 2998 3001 3003 3005 3007 3009 3011 3013 3016 3017 3019 3021 3022 3024 3026 3027 3029 3031 3032 3034 3035 3037 3037 3038 3040 3041 3042 3043 3044 3046 3049 3051 3053 3055 3056 3058 3060 3062 3063 3065 3066 3067 3069 3070 3071 3072 3073 3074 3075 3077 3077 3078 3079 3081 3082 3082 3083
2945 2947 2949 2950 2952 2954 2957 2960 2962 2965 2966 2967 2969 2971 2973 2976 2979 2981 2982 2981 2982 2984 2986 2987 2989 2991 2992 2993 2995 2997 2998 3000 3002 3004 3007 3009 3011 3013 3015 3017 3018 3020 3022 3023 3025 3027 3028 3030 3031 3032 3034 3035 3036 3037 3039 3040 3042 3042 3043 3045 3047 3049 3051 3053 3055 3057 3058 3060 3062 3063 3065 3066 3067 3068 3069 3071 3072 3073 3074 3075 3076 3077 3078 3079 3080 3081
2942 2943 2946 2947 2948 2951 2954 2956 2958 2961 2963 2965 2967 2968 2970 2972 2975 2977 2977 2977 2979 2981 2983 2984 2986 2988 2989 2991 2993 2995 2997 2998 3000 3002 3004 3007 3009 3011 3013 3014 3016 3018 3020 3022 3023 3024 3026 3027 3028 3030 3031 3032 3034 3035 3037 3038 3039 3041 3042 3043 3044 3046 3048 3050 3052 3053 3055 3057 3058 3060 3062 3063 3064 3066 3067 3068 3070 3071 3072 3073 3074 3075 3076 3076 3077 3078
2938 2941 2942 2943 2945 2947 2950 2952 2955 2957 2960 2963 2965 2966 2967 2969 2971 2972 2973 2974 2976 2978 2980 2982 2983 2985 2987 2989 2991 2993 2995 2997 2998 3000 3002 3004 3006 3008 3010 3012 3014 3016 3017 3019 3021 3022 3023 3025 3026 3028 3029 3030 3032 3033 3034 3036 3037 3039 3040 3042 3043 3044 3046 3048 3050 3051 3052 3054 3056 3058 3059 3061 3062 3063 3065 3066 3067 3069 3070 3071 3072 3072 3073 3074 3074 3075
2936 2937 2938 2939 2942 2945 2947 2950 2952 2955 2958 2961 2962 2963 2965 2966 2967 2969 2971 2972 2973 2975 2977 2979 2981 2982 2984 2986 2988 2990 2992 2995 2997 2998 3000 3002 3004 3006 3008 3010 3012 3013 3015 3017 3018 3020 3022 3023 3025 3026 3027 3029 3030 3031 3032 3034 3036 3037 3038 3040 3042 3043 3044 3046 3047 3049 3051 3052 3054 3056 3057 3059 3060 3062 3063 3064 3065 3066 3067 3068 3068 3069 3070 3071 3072 3072
2933 2934 2935 2937 2939 2942 2945 2947 2950 2953 2956 2957 2958 2959 2960 2962 2964 2966 2969 2971 2972 2973 2975 2976 2978 2980 2982 2984 2986 2988 2991 2993 2995 2997 2998 3000 3002 3004 3006 3008 3010 3011 3013 3015 3016 3018 3020 3021 3023 3024 3026 3027 3028 3030 3031 3032 3034 3035 3037 3038 3040 3041 3043 3044 3046 3047 3049 3050 3052 3054 3055 3057 3058 3059 3060 3061 3062 3063 3064 3065 3065 3066 3067 3068 3069 3070
2930 2932 2933 2935 2937 2939 2942 2944 2947 2949 2952 2954 2955 2956 2957 2959 2962 2965 2967 2968 2970 2971 2973 2975 2977 2979 2981 2983 2985 2987 2989 2991 2993 2995 2997 2999 3000 3002 3004 3006 3008 3009 3011 3012 3014 3016 3017 3019 3021 3022 3024 3026 3027 3028 3030 3031 3033 3034 3036 3037 3038 3040 3041 3042 3044 3046 3047 3049 3050 3052 3053 3055 3056 3057 3057 3058 3059 3060 3061 3062 3063 3064 3065 3066 3067 3068
2927 2929 2931 2932 2934 2937 2939 2942 2944 2947 2950 2952 2954 2954 2956 2958 2960 2962 2964 2965 2967 2969 2972 2974 2977 2978 2980 2982 2983 2985 2987 2989 2991 2993 2995 2997 2998 3000 3002 3004 3006 3007 3009 3011 3012 3013 3015 3017 3018 3020 3022 3023 3025 3027 3028 3030 3031 3033 3034 3036 3037 3038 3039 3041 3042 3044 3045 3047 3048 3050 3051 3052 3053 3054 3055 3056 3057 3058 3059 3060 3061 3062 3063 3064 3065 3066
2925 2927 2928 2930 2932 2935 2937 2940 2943 2946 2949 2952 2952 2952 2954 2955 2957 2958 2960 2962 2965 2967 2971 2973 2974 2976 2978 2979 2981 2983 2985 2987 2989 2991 2993 2995 2996 2998 3000 3002 3004 3005 3007 3009 3011 3012 3013 3015 3017 3018 3019 3021 3023 3024 3026 3028 3030 3031 3032 3034 3035 3036 3037 3039 3040 3042 3043 3045 3047 3048 3049 3051 3052 3052 3053 3054 3055 3057 3057 3059 3060 3061 3062 3062 3063 3064
2923 2925 2927 2928 2930 2933 2936 2938 2941 2944 2947 2949 2950 2951 2951 2952 2954 2956 2959 2961 2964 2966 2969 2970 2971 2973 2975 2977 2979 2981 2983 2986 2987 2989 2992 2993 2995 2996 2998 3000 3002 3004 3006 3008 3009 3010 3012 3013 3015 3016 3018 3019 3021 3022 3024 3026 3027 3029 3031 3032 3033 3035 3036 3037 3039 3040 3042 3043 3045 3046 3047 3049 3050 3051 3052 3053 3054 3055 3056 3057 3058 3059 3059 3060 3061 3061
2922 2924 2926 2927 2928 2930 2933 2935 2938 2941 2944 2946 2947 2949 2950 2951 2953 2956 2958 2960 2962 2964 2966 2967 2969 2970 2972 2974 2976 2979 2981 2984 2986 2988 2990 2992 2993 2994 2997 2999 3001 3002 3004 3006 3007 3008 3010 3012 3013 3015 3016 3018 3020 3021 3022 3024 3026 3027 3029 3030 3032 3033 3035 3036 3037 3039 3040 3042 3043 3044 3046 3047 3048 3049 3050 3051 3052 3053 3054 3054 3055 3056 3057 3057 3058 3059
2919 2921 2922 2924 2927 2929 2931 2933 2936 2938 2941 2943 2945 2947 2949 2950 2952 2955 2957 2958 2960 2962 2964 2966 2967 2969 2971 2973 2975 2977 2980 2982 2984 2986 2988 2990 2991 2993 2995 2998 2999 3001 3003 3004 3005 3007 3008 3010 3011 3013 3015 3017 3018 3020 3021 3022 3024 3026 3027 3029 3030 3032 3033 3035 3036 3037 3039 3040 3041 3042 3043 3044 3046 3047 3047 3048 3049 3050 3051 3052 3052 3053 3054 3055 3055 3056
2917 2919 2922 2924 2927 2928 2930 2932 2934 2937 2939 2941 2943 2945 2947 2949 2951 2953 2955 2956 2957 2960 2962 2964 2966 2967 2970 2972 2974 2976 2979 2981 2982 2984 2986 2987 2989 2991 2994 2996 2997 2999 3001 3002 3003 3005 3007 3008 3010 3012 3013 3015 3017 3018 3019 3021 3022 3024 3026 3027 3029 3030 3032 3033 3034 3036 3037 3038 3039 3040 3042 3042 3043 3044 3045 3046 3047 3048 3048 3049 3050 3051 3052 3052 3053 3053
2917 2918 2920 2923 2925 2927 2928 2929 2932 2936 2938 2940 2942 2944 2946 2948 2951 2952 2952 2953 2955 2957 2960 2962 2963 2965 2968 2971 2973 2975 2977 2979 2981 2982 2984 2986 2988 2990 2992 2994 2995 2997 2998 3000 3002 3003 3005 3007 3009 3010 3012 3013 3015 3016 3018 3019 3021 3022 3024 3026 3027 3028 3030 3031 3033 3034 3035 3037 3037 3038 3039 3040 3041 3042 3043 3044 3045 3045 3046 3047 3047 3048 3049 3050 3051 3051
2916 2917 2919 2921 2923 2924 2926 2928 2930 2933 2936 2938 2940 2942 2945 2947 2949 2950 2951 2952 2954 2955 2957 2958 2960 2963 2967 2970 2972 2973 2975 2977 2979 2981 2983 2985 2987 2988 2990 2992 2994 2996 2997 2998 3000 3002 3004 3005 3007 3008 3010 3011 3013 3014 3016 3017 3019 3021 3022 3024 3025 3027 3028 3029 3031 3032 3033 3035 3036 3037 3037 3038 3039 3040 3041 3042 3042 3043 3044 3045 3046 3046 3047 3047 3048 3049
2914 2916 2918 2920 2921 2923 2924 2927 2929 2931 2933 2935 2937 2940 2942 2945 2947 2948 2949 2951 2952 2952 2954 2956 2959 2963 2967 2969 2970 2972 2974 2976 2978 2980 2982 2983 2985 2987 2989 2991 2993 2994 2996 2997 2998 3000 3002 3004 3005 3006 3008 3010 3011 3013 3014 3016 3017 3019 3020 3022 3023 3025 3026 3027 3029 3030 3031 3032 3033 3034 3035 3036 3037 3038 3039 3040 3041 3041 3042 3043 3043 3044 3045 3045 3046 3047
2912 2914 2916 2918 2920 2922 2923 2925 2927 2929 2931 2933 2935 2938 2941 2943 2945 2947 2948 2949 2950 2952 2954 2957 2960 2963 2965 2966 2968 2970 2972 2974 2976 2978 2980 2982 2983 2985 2987 2990 2991 2992 2993 2995 2997 2999 3001 3002 3004 3005 3007 3008 3010 3011 3012 3014 3016 3017 3018 3020 3021 3023 3024 3025 3027 3028 3029 3030 3032 3032 3033 3034 3035 3036 3037 3038 3038 3039 3040 3041 3041 3042 3042 3043 3044 3045
2911 2912 2915 2917 2919 2921 2922 2924 2925 2927 2929 2931 2933 2936 2938 2941 2943 2945 2946 2948 2950 2952 2954 2957 2958 2960 2962 2963 2965 2968 2970 2972 2975 2977 2978 2980 2982 2984 2987 2988 2989 2990 2992 2994 2996 2998 2999 3001 3002 3004 3005 3007 3008 3009 3011 3012 3014 3015 3017 3018 3020 3021 3022 3024 3025 3026 3027 3028 3029 3030 3031 3032 3033 3034 3035 3036 3037 3037 3038 3039 3039 3040 3040 3041 3042 3042
2909 2911 2912 2915 2917 2920 2922 2923 2924 2926 2927 2929 2932 2934 2936 2938 2940 2942 2945 2947 2949 2951 2952 2955 2956 2958 2959 2962 2964 2966 2968 2971 2973 2975 2977 2978 2981 2983 2985 2986 2987 2988 2990 2993 2995 2996 2997 2999 3001 3002 3004 3005 3006 3008 3009 3011 3012 3014 3015 3017 3018 3019 3021 3022 3023 3024 3025 3026 3027 3028 3029 3030 3031 3032 3033 3034 3035 3035 3036 3037 3037 3038 3038 3039 3040 3040
2908 2909 2911 2913 2915 2918 2920 2922 2924 2925 2927 2928 2930 2932 2934 2936 2938 2940 2942 2944 2946 2948 2951 2952 2954 2957 2959 2961 2962 2964 2966 2968 2971 2973 2975 2977 2979 2981 2982 2984 2986 2987 2989 2991 2993 2994 2995 2997 2999 3001 3002 3003 3004 3006 3007 3009 3010 3012 3013 3015 3016 3017 3019 3020 3021 3022 3023 3025 3026 3027 3027 3028 3029 3030 3031 3032 3032 3033 3034 3034 3035 3036 3036 3037 3037 3038
2906 2908 2909 2911 2913 2916 2918 2921 2923 2925 2927 2928 2930 2931 2933 2934 2936 2937 2939 2942 2944 2947 2949 2951 2952 2955 2957 2959 2961 2963 2965 2967 2969 2971 2973 2975 2977 2978 2980 2982 2984 2986 2987 2988 2990 2992 2994 2995 2997 2999 3000 3001 3002 3004 3006 3007 3009 3010 3012 3013 3014 3016 3017 3018 3020 3021 3022 3023 3024 3025 3026 3027 3027 3028 3029 3030 3030 3031 3032 3032 3033 3033 3034 3035 3035 3036
2905 2907 2908 2910 2912 2914 2916 2918 2921 2923 2925 2927 2929 2931 2932 2933 2935 2936 2938 2940 2942 2945 2947 2949 2951 2953 2955 2957 2959 2961 2963 2965 2967 2969 2972 2973 2975 2977 2978 2981 2982 2984 2985 2986 2988 2990 2992 2993 2995 2997 2998 2999 3001 3002 3004 3005 3007 3008 3010 3011 3013 3014 3015 3017 3018 3019 3020 3021 3022 3023 3024 3025 3025 3026 3027 3027 3028 3029 3029 3030 3031 3031 3032 3032 3033 3033
2905 2906 2908 2909 2911 2912 2914 2917 2919 2921 2923 2925 2927 2929 2930 2932 2934 2936 2938 2940 2942 2943 2944 2947 2949 2951 2953 2956 2958 2960 2962 2963 2965 2967 2969 2971 2973 2974 2977 2979 2981 2982 2983 2984 2986 2987 2989 2990 2992 2994 2996 2997 2999 3000 3002 3003 3005 3007 3008 3010 3011 3012 3014 3015 3016 3017 3018 3019 3020 3021 3022 3022 3023 3024 3025 3025 3026 3027 3027 3028 3028 3029 3029 3030 3031 3031
2904 2906 2907 2909 2910 2912 2913 2915 2917 2919 2921 2923 2925 2927 2928 2931 2933 2935 2937 2939 2940 2942 2943 2945 2947 2949 2952 2953 2956 2957 2959 2961 2963 2965 2967 2969 2970 2972 2975 2977 2979 2980 2982 2983 2984 2985 2986 2987 2989 2992 2994 2996 2997 2998 3000 3001 3003 3005 3006 3008 3009 3011 3012 3013 3015 3016 3017 3017 3018 3019 3020 3021 3021 3022 3023 3023 3024 3025 3025 3026 3026 3027 3027 3028 3028 3029
2903 2905 2907 2908 2910 2911 2913 2914 2916 2917 2919 2921 2923 2925 2927 2929 2931 2933 2935 2937 2938 2940 2942 2944 2946 2948 2949 2951 2953 2955 2957 2959 2962 2964 2966 2967 2968 2971 2973 2975 2976 2978 2980 2982 2983 2984 2985 2986 2988 2990 2992 2994 2995 2997 2998 3000 3001 3003 3004 3006 3007 3009 3010 3011 3012 3014 3014 3015 3016 3017 3018 3018 3019 3020 3021 3021 3022 3022 3023 3023 3024 3024 3025 3025 3026 3027
2902 2904 2905 2907 2909 2910 2912 2913 2915 2917 2918 2920 2922 2923 2925 2927 2929 2931 2933 2935 2937 2939 2941 2943 2945 2946 2948 2949 2951 2953 2956 2958 2960 2962 2964 2965 2967 2969 2971 2973 2974 2976 2978 2980 2982 2983 2984 2986 2988 2990 2991 2992 2993 2995 2996 2998 2999 3000 3002 3003 3005 3006 3008 3009 3010 3011 3012 3013 3014 3015 3016 3016 3017 3018 3018 3019 3020 3020 3021 3021 3022 3022 3023 3023 3024 3024
2901 2902 2904 2906 2907 2908 2910 2912 2913 2915 2917 2918 2920 2922 2923 2925 2927 2929 2931 2933 2935 2937 2939 2941 2942 2944 2946 2948 2950 2952 2955 2957 2958 2960 2962 2963 2965 2967 2969 2971 2972 2974 2976 2977 2979 2981 2982 2984 2986 2988 2989 2991 2992 2993 2995 2996 2997 2998 3000 3002 3003 3004 3005 3007 3008 3009 3010 3011 3012 3013 3013 3014 3015 3016 3016 3017 3017 3018 3018 3019 3019 3020 3021 3021 3021 3022
2900 2902 2903 2904 2906 2907 2908 2910 2911 2913 2915 2917 2918 2920 2922 2924 2926 2927 2929 2931 2933 2935 2937 2938 2941 2942 2944 2947 2949 2951 2953 2954 2956 2958 2960 2961 2963 2965 2967 2969 2970 2972 2973 2975 2977 2978 2980 2982 2983 2985 2987 2988 2990 2991 2993 2994 2996 2997 2999 3000 3001 3002 3003 3004 3005 3006 3007 3008 3009 3010 3011 3012 3012 3013 3014 3014 3015 3016 3016 3017 3017 3018 3018 3018 3019 3020
2899 2900 2902 2903 2904 2906 2907 2908 2910 2911 2913 2914 2916 2918 2920 2922 2924 2926 2927 2929 2931 2933 2935 2937 2939 2941 2942 2945 2947 2949 2951 2952 2954 2956 2957 2959 2961 2962 2965 2966 2968 2969 2972 2973 2974 2976 2977 2979 2981 2982 2984 2986 2987 2988 2990 2992 2993 2995 2997 2997 2999 2999 3000 3001 3002 3003 3004 3006 3007 3008 3009 3010 3010 3011 3011 3012 3012 3013 3014 3014 3015 3016 3016 3017 3017 3018
2898 2899 2900 2902 2903 2904 2906 2907 2908 2910 2912 2913 2915 2917 2918 2920 2922 2924 2926 2927 2929 2931 2933 2935 2937 2939 2941 2942 2945 2947 2948 2951 2952 2954 2955 2957 2958 2961 2962 2964 2966 2967 2969 2971 2972 2973 2975 2977 2979 2980 2982 2983 2984 2986 2987 2989 2991 2992 2993 2994 2996 2997 2998 2999 3000 3001 3002 3003 3004 3005 3006 3007 3007 3008 3008 3009 3010 3011 3012 3012 3012 3013 3014 3014 3015 3016
2897 2898 2899 2901 2902 2903 2905 2906 2907 2909 2910 2912 2913 2915 2917 2918 2920 2922 2924 2926 2927 2929 2931 2933 2935 2937 2939 2941 2943 2945 2947 2949 2951 2952 2953 2955 2957 2959 2961 2962 2964 2966 2967 2968 2969 2971 2973 2975 2976 2977 2979 2980 2982 2983 2985 2987 2988 2989 2990 2991 2993 2994 2995 2996 2997 2998 2999 3000 3001 3002 3003 3004 3005 3005 3006 3007 3008 3009 3009 3010 3011 3011 3012 3012 3013 3014
2896 2897 2898 2900 2901 2902 2904 2905 2907 2908 2909 2911 2912 2914 2915 2917 2918 2920 2922 2924 2926 2927 2929 2931 2933 2935 2937 2939 2941 2943 2945 2947 2949 2950 2952 2954 2956 2957 2959 2961 2962 2964 2965 2967 2968 2969 2971 2972 2973 2975 2976 2978 2979 2981 2982 2984 2985 2986 2987 2988 2990 2991 2992 2993 2994 2995 2997 2997 2999 3000 3001 3001 3002 3003 3004 3005 3006 3007 3007 3008 3008 3009 3010 3011 3011 3011
2895 2897 2898 2899 2900 2901 2903 2904 2906 2907 2908 2910 2911 2912 2914 2916 2917 2919 2921 2922 2924 2926 2928 2929 2931 2933 2935 2937 2939 2941 2943 2945 2947 2948 2950 2952 2953 2955 2957 2958 2960 2961 2962 2964 2966 2967 2968 2969 2971 2972 2974 2975 2977 2978 2980 2981 2982 2983 2984 2986 2987 2987 2988 2990 2991 2992 2993 2995 2996 2997 2998 2999 3000 3001 3002 3002 3003 3004 3005 3006 3006 3007 3008 3008 3009 3009
2894 2896 2897 2898 2899 2901 2902 2903 2905 2906 2907 2909 2910 2912 2913 2914 2916 2917 2919 2921 2923 2925 2926 2928 2930 2932 2933 2935 2937 2938 2940 2942 2944 2946 2947 2949 2951 2952 2954 2956 2957 2959 2960 2961 2963 2964 2965 2967 2968 2970 2971 2973 2974 2976 2977 2978 2979 2980 2982 2983 2983 2984 2985 2987 2988 2990 2991 2992 2993 2994 2995 2997 2997 2998 2999 3000 3001 3002 3002 3003 3004 3004 3005 3006 3006 3007
2893 2894 2895 2897 2898 2899 2901 2902 2903 2905 2906 2907 2909 2910 2912 2913 2914 2916 2918 2920 2921 2923 2925 2926 2928 2929 2931 2933 2934 2936 2938 2940 2942 2943 2945 2947 2948 2950 2952 2953 2955 2957 2958 2959 2960 2962 2963 2964 2966 2967 2969 2970 2972 2973 2974 2975 2977 2978 2979 2980 2980 2982 2983 2985 2986 2987 2988 2989 2990 2992 2993 2994 2995 2996 2997 2997 2998 2999 3000 3001 3001 3002 3002 3003 3003 3004
2891 2892 2894 2895 2897 2898 2899 2901 2902 2904 2905 2907 2908 2909 2910 2912 2913 2915 2916 2918 2920 2921 2923 2924 2926 2927 2929 2931 2932 2934 2936 2937 2939 2941 2942 2944 2946 2947 2949 2951 2952 2954 2955 2957 2958 2959 2961 2962 2964 2965 2966 2968 2969 2971 2972 2973 2974 2975 2976 2977 2978 2980 2981 2982 2982 2984 2985 2987 2987 2989 2990 2991 2992 2993 2994 2995 2995 2996 2997 2997 2998 2999 2999 3000 3001 3001
2889 2891 2892 2893 2895 2897 2898 2899 2901 2902 2903 2905 2906 2908 2909 2911 2912 2913 2915 2917 2918 2920 2921 2923 2924 2926 2927 2929 2930 2932 2934 2935 2937 2939 2940 2942 2943 2945 2947 2948 2950 2951 2953 2954 2956 2957 2959 2960 2962 2963 2964 2966 2967 2968 2969 2970 2972 2973 2974 2975 2976 2977 2977 2978 2980 2982 2983 2984 2985 2986 2987 2988 2989 2990 2991 2992 2992 2993 2994 2995 2995 2996 2996 2997 2997 2998
2888 2889 2890 2892 2893 2894 2896 2897 2899 2900 2902 2903 2905 2906 2907 2909 2911 2912 2913 2915 2917 2918 2920 2921 2922 2924 2926 2927 2928 2930 2932 2933 2935 2937 2938 2940 2941 2943 2944 2946 2947 2949 2951 2952 2953 2955 2957 2958 2959 2961 2962 2963 2965 2966 2967 2968 2969 2970 2971 2972 2973 2974 2975 2976 2978 2980 2981 2981 2982 2983 2984 2985 2987 2987 2988 2989 2989 2990 2991 2992 2992 2992 2993 2993 2994 2995
2886 2887 2889 2890 2891 2892 2894 2895 2897 2898 2900 2902 2903 2904 2906 2907 2909 2910 2912 2913 2915 2917 2918 2919 2921 2922 2924 2925 2927 2928 2930 2932 2933 2935 2936 2938 2939 2941 2943 2944 2946 2947 2949 2950 2952 2953 2955 2956 2957 2958 2960 2961 2962 2963 2964 2966 2967 2968 2969 2970 2971 2972 2973 2974 2976 2977 2977 2978 2980 2981 2982 2982 2983 2984 2985 2985 2986 2987 2988 2988 2989 2989 2990 2990 2991 2992
2885 2886 2887 2888 2890 2891 2892 2894 2895 2897 2898 2900 2901 2902 2904 2906 2907 2909 2910 2912 2913 2915 2917 2918 2920 2921 2922 2924 2926 2927 2928 2930 2932 2933 2935 2937 2938 2939 2941 2942 2944 2945 2947 2948 2950 2951 2952 2953 2955 2956 2957 2958 2959 2961 2962 2963 2964 2965 2966 2967 2968 2969 2970 2971 2972 2974 2975 2976 2977 2978 2979 2980 2980 2981 2981 2982 2983 2984 2984 2985 2985 2986 2986 2987 2988 2988
2884 2885 2886 2887 2888 2889 2891 2892 2893 2895 2896 2898 2899 2901 2902 2904 2905 2907 2908 2910 2912 2913 2915 2917 2918 2919 2921 2922 2924 2925 2927 2928 2930 2932 2933 2935 2936 2938 2939 2941 2942 2943 2945 2946 2947 2949 2950 2951 2952 2953 2955 2956 2957 2958 2959 2960 2962 2963 2964 2965 2966 2967 2967 2968 2970 2971 2972 2973 2974 2975 2976 2977 2977 2977 2978 2979 2980 2980 2981 2982 2982 2982 2983 2984 2985 2985
2883 2884 2885 2886 2887 2888 2889 2890 2892 2893 2895 2896 2897 2899 2900 2902 2903 2905 2906 2908 2910 2911 2913 2914 2916 2918 2919 2921 2922 2923 2925 2927 2928 2930 2931 2933 2934 2936 2937 2939 2940 2942 2943 2944 2945 2946 2947 2948 2950 2951 2952 2953 2954 2955 2956 2957 2958 2960 2961 2962 2962 2963 2964 2966 2967 2968 2969 2970 2971 2972 2973 2973 2974 2974 2975 2976 2977 2977 2977 2978 2979 2980 2980 2981 2982 2982
2882 2883 2884 2885 2886 2887 2888 2889 2891 2892 2893 2895 2896 2897 2899 2900 2902 2903 2904 2906 2907 2909 2911 2912 2914 2916 2917 2919 2920 2922 2923 2925 2926 2928 2929 2931 2932 2934 2935 2937 2938 2939 2941 2942 2943 2944 2945 2946 2947 2948 2949 2950 2952 2952 2954 2955 2956 2957 2958 2959 2960 2961 2962 2962 2963 2965 2966 2967 2967 2968 2969 2970 2971 2971 2972 2973 2973 2974 2975 2976 2976 2977 2977 2978 2978 2979
2882 2882 2883 2884 2886 2887 2887 2888 2889 2891 2892 2893 2894 2896 2897 2898 2900 2901 2902 2904 2906 2907 2909 2910 2912 2913 2915 2917 2918 2919 2921 2922 2924 2926 2927 2928 2930 2932 2933 2934 2936 2937 2938 2939 2940 2941 2942 2943 2945 2946 2947 2948 2949 2950 2952 2952 2953 2954 2955 2956 2957 2957 2958 2959 2960 2961 2962 2963 2964 2965 2966 2967 2967 2968 2969 2970 2971 2971 2972 2973 2973 2974 2974 2975 2975 2976